sat.trackr.live / text

‹ back to catalog

STARLINK-35807

NORAD 66358 · 2025-254L

PAYLOAD ACTIVE UNKNOWN

§ Identity

Operator
Country
US
Launch date
2025-11-06
Launch site
AFWTR
Launch vehicle
Mass (kg)
RCS (m²)

Purposes: comms

External: N2YO · Heavens-Above · Gunter

§ Orbital elements

Epoch: 2026-05-25T05:09:56.227104Z

Period
94.01 min
Inclination
53.1571°
Eccentricity
0.0000899
Mean motion
15.31700743 rev/d
Perigee alt
470.1 km
Apogee alt
471.4 km
Semi-major
6,848.9 km
B*
8.0366e-4
RAAN
236.8896°
Arg perigee
74.0417°
Mean anomaly
286.0683°
Rev number
3,069

§ Raw data

STARLINK-358071 66358U 25254L   26145.21523411  .00024656  00000+0  80366-3 0  99912 66358  53.1571 236.8896 0000899  74.0417 286.0683 15.31700743 30695

JSON: /api/v1/satellites/66358 · /tle

For live sub-satellite position, see the globe view (requires WebGL).

§ Visibility from observer

Set your observer location to see the next 7 days of passes ≥ 10°. The values pass through the URL so the page stays shareable.

No JS? Fill the form by hand. The geolocation button needs JavaScript.